Regional Weather Roundup
Issued by NWS

Home | Current Version | Previous Version | Graphics & Text | Print | Product List | Glossary On
Versions: 1 2 3 4 5 6 7 8 9 10 11 12 13 14 15 16 17 18 19 20 21 22 23 24 25 26 27 28 29 30 31 32 33 34 35 36 37 38 39 40 41 42 43 44 45 46 47 48 49 50
000
ASUS43 KMKX 022021
RWRWI

WISCONSIN REGIONAL WEATHER ROUNDUP
NATIONAL WEATHER SERVICE MILWAUKEE/SULLIVAN WI
300 PM CDT THU JUL 02 2015

NOTE: "FAIR" INDICATES FEW OR NO CLOUDS BELOW 12,000 FEET WITH NO
SIGNIFICANT WEATHER AND/OR OBSTRUCTIONS TO VISIBILITY.

WIZ001-002-006>008-014>016-023>028-022100-
NORTHWEST WISCONSIN

CITY           SKY/WX    TMP DP  RH WIND       PRES   REMARKS
SUPERIOR ARPT  MOSUNNY   77  60  55 SW7       29.98F
ASHLAND        SUNNY     77  58  51 SW6       30.00S
HAYWARD        SUNNY     74  51  44 S6        30.02F
SIREN          SUNNY     76  50  40 SW3       30.01F
CUMBERLAND     SUNNY     72  46  40 S5        30.03S
RICE LAKE      SUNNY     74  49  40 S5        30.03S
CHETEK         SUNNY     74  55  50 SE6       30.02S
LADYSMITH      SUNNY     74  52  45 S3        30.04F
EAU CLAIRE     SUNNY     75  50  41 SE8       30.01F
MENOMONIE      SUNNY     75  53  45 SE7       30.01F
NEW RICHMOND   SUNNY     74  52  45 S6        30.02S
OSCEOLA        SUNNY     76  48  37 SE6       30.04S
$$

WIZ003>005-009-010-017-018-022100-
NORTH CENTRAL WISCONSIN

CITY           SKY/WX    TMP DP  RH WIND       PRES   REMARKS
MANITOWISH WTR SUNNY     73  52  46 W5        30.03S
ARBOR VITAE    SUNNY     73  53  49 SW5       30.03F
WOODRUFF       SUNNY     73  53  49 SW5       30.03F
RHINELANDER    SUNNY     74  48  39 CALM      30.04F
EAGLE RIVER    SUNNY     73  48  40 W6        30.03S
LAND O LAKES   MOSUNNY   74  47  38 W6        30.04S
PHILLIPS       MOSUNNY   74  53  47 SW3       30.02S
TOMAHAWK       SUNNY     74  51  45 CALM      30.04F
MEDFORD        SUNNY     72  52  49 S3        30.03F
MERRILL        SUNNY     74  51  44 SW5       30.04F
$$

WIZ029-030-035-036-043>047-022100-
CENTRAL WISCONSIN

CITY           SKY/WX    TMP DP  RH WIND       PRES   REMARKS
WAUSAU         SUNNY     75  46  35 SE8       30.02F
MOSINEE        SUNNY     72  48  43 SE5       30.04F
MARSHFIELD     SUNNY     74  50  42 E8        30.03F
STEVENS POINT  SUNNY     70  47  43 SE8       30.04S
WAUPACA        SUNNY     76  46  35 CALM      30.03F
WAUTOMA        SUNNY     73  47  39 E9        30.04S
WISC RAPIDS    SUNNY     75  44  33 VRB5      30.04F
CAMP DOUGLAS   SUNNY     73  53  49 E6        30.02S
$$

WIZ011>013-019>022-031-037>040-048>050-022100-
NORTHEAST WISCONSIN

CITY           SKY/WX    TMP DP  RH WIND       PRES   REMARKS
ANTIGO         SUNNY     71  49  45 CALM      30.05S
SHAWANO        SUNNY     75  43  31 E6        30.04F
OCONTO         SUNNY     71  46  41 SE6       30.04S
STURGEON BAY   SUNNY     68  46  45 SE7       30.07S
GREEN BAY      SUNNY     73  49  42 E10       30.04F
MANITOWOC      SUNNY     67  46  47 MISG      30.05S
APPLETON       SUNNY     72  43  35 E7        30.04F
CLINTONVILLE   SUNNY     73  45  35 SE3       30.03F
OSHKOSH        SUNNY     71  49  45 E6        30.03F
$$

WIZ032>034-041-042-053>061-022100-
SOUTHWEST WISCONSIN

CITY           SKY/WX    TMP DP  RH WIND       PRES   REMARKS
LA CROSSE      SUNNY     76  53  44 N6        30.01S
SPARTA         SUNNY     74  47  38 E9        30.03R
VIROQUA        SUNNY     72  52  48 E7        30.03S
BOSCOBEL       SUNNY     74  51  44 N8        30.01F
PRAIRIE DU CHI SUNNY     72  50  47 E8        30.01S
PLATTEVILLE    MOSUNNY   70  47  43 NE8       30.01S
$$

WIZ056-057-062-063-064-067-068-022100-
SOUTH CENTRAL WISCONSIN

CITY           SKY/WX    TMP DP  RH WIND       PRES   REMARKS
REEDSBURG      SUNNY     71  51  49 E10       30.02S
BARABOO/DELLS  SUNNY     71  49  46 E7        30.02F
LONE ROCK      SUNNY     72  50  45 E9        30.01F
MINERAL POINT  SUNNY     70  45  40 E6        30.02S
MADISON        MOSUNNY   70  49  47 E10       30.01F
MIDDLETON      MOSUNNY   72  45  37 E6        30.02F
WATERTOWN      SUNNY     70  49  46 NE8       30.01F
MONROE         MOSUNNY   68  50  52 NE10      30.01S
JANESVILLE     SUNNY     72  50  46 E9        30.00F
$$

WIZ051-052-058>065-066-070>072-022100-
SOUTHEAST WISCONSIN

CITY           SKY/WX    TMP DP  RH WIND       PRES   REMARKS
MILWAUKEE      MOSUNNY   62  50  64 NE12      30.03F
WAUKESHA       SUNNY     66  46  48 NE10      30.03F
MILWAUKEE/TIMM SUNNY     64  46  52 NE9       30.04F
RACINE         SUNNY     64  51  62 NE13      30.05S
BURLINGTON     SUNNY     68  45  44 NE8       30.01S
KENOSHA        SUNNY     67  53  61 E10       30.02F
FOND DU LAC    SUNNY     73  45  36 E9        30.03S
SHEBOYGAN      SUNNY     67  50  54 E9        30.04F
WEST BEND      SUNNY     68  46  45 E6        30.03F
JUNEAU         SUNNY     70  49  47 NE7       30.03F
$$

LSZ147-162-022100-
LAKE SUPERIOR

STATION/POSITION TIME  TEMP    WIND        PRES    WAVE
                       AIR SEA DIR/SP/G            HT/PER
                 (UTC) (F)     (DEG/KT/KT) (MB)    (FT/S)
W MID LAKE BUOY  1950   48 39  190/  8/  8 1015.3F   1
DEVILS ISLAND    2000   69     230/ 10/ 12 1014.8F
SAXON HARBOR     1900   76     240/  2/ 10 1015.6
$$

LMZ867-665-643>646-022100-
LAKE MICHIGAN

STATION/POSITION TIME  TEMP    WIND        PRES    WAVE
                       AIR SEA DIR/SP/G            HT/PER
                 (UTC) (F)     (DEG/KT/KT) (MB)    (FT/S)
CHAMBERS ISLAND  1900   69     340/  3/  4 1017.9S
N MID LAKE BUOY  1950   56 53   CALM  /  2 1018.1F   0
NORTHPORT PIER   1900   60     120/  5/  6 1017.9S
SISTER BAY       1914   70     360/  9/  9   N/A
ALGOMA LAKESHORE 1940           70/  7/  8   N/A
KEWAUNEE LAKESHO 1900   62      40/  4/  7 1017.6F
SHEBOYGAN LAKESH 2000   57      10/ 10/ 11 1017.9F
PORT WASHINGTON  1900   61      50/  7/ 10 1018.3
ATWATER BUOY     2000   57      30/ 12/ 16 1018.3F
MILWAUKEE LAKESH 2000   57      40/ 12/ 13   N/A
KENOSHA   LAKESH 2000   57      30/ 15/ 18 1016.3F
$$

TC  - TEMPERATURE IN CELSIUS
VSB - VISIBILITY IN STATUTE MILES
WCI - WIND CHILL INDEX
HX  - HEAT INDEX




USA.gov is the U.S. government's official web portal to all federal, state and local government web resources and services.